Location: *
(40.7765°S, 106.5327°E)
Time: 14:55:50
(UTC+00:00)

NOAA 11 - Pass Details

Date: 26 May 2022
Orbit: 832 x 850 km, 98.4° (Epoch: 04 July)

Event Time Altitude Azimuth Distance (km) Brightness Sun altitude
Rises 09:55:08 0° 165° (SSE) 3,424 7.0 -3.8°
Reaches altitude 10° 09:57:32 10° 163° (SSE) 2,484 6.3 -4.2°
Maximum altitude 10:03:03 73° 78° (ENE) 890 4.2 -5.1°
Drops below altitude 10° 10:08:31 10° 353° (N) 2,464 7.1 -6.1°
Sets 10:10:52 0° 351° (N) 3,394 7.8 -6.5°
